Regional Weather Roundup
Issued by NWS

Home | Current Version | Previous Version | Text Only | Print | Product List | Glossary Off
Versions: 1 2 3 4 5 6 7 8 9 10 11 12 13 14 15 16 17 18 19 20 21 22 23 24 25 26 27 28 29 30 31 32 33 34 35 36 37 38 39 40 41 42 43 44 45 46 47 48 49 50

000
ASUS43 KLSX 221059
RWRMO

WEATHER SUMMARY FOR MISSOURI
NATIONAL WEATHER SERVICE SPRINGFIELD MO
600 AM CDT FRI AUG 22 2014

NOTE: "FAIR" INDICATES FEW OR NO CLOUDS BELOW 12,000 FEET WITH NO
       SIGNIFICANT WEATHER AND/OR OBSTRUCTIONS TO VISIBILITY.
       CURRENT SKY AND/OR WEATHER CONDITIONS ARE NOT AVAILABLE FOR
       CHILLICOTHE AND FARMINGTON.

MOZ001>031-035>038-043-044-053-054-221200-
...NORTHERN AND WESTERN MISSOURI...

CITY           SKY/WX    TMP DP  RH WIND       PRES   REMARKS
KANSAS CTY INT PTCLDY    77  71  82 S9        29.90F
KANSAS C DTWN  PTCLDY    81  71  71 S9        29.89F
LEE`S SUMMIT   PTCLDY    77  71  82 S10       29.92F
ST JOSEPH      PTCLDY    75  73  93 SE5       29.90F
KIRKSVILLE     TSTM      76  73  91 NW9G18    29.98R VSB 1

$$
MOZ066>068-077>081-088>096-101>105-221200-
...SOUTHWEST MISSOURI...

CITY           SKY/WX    TMP DP  RH WIND       PRES   REMARKS
SPRINGFIELD    CLEAR     74  70  87 S9        30.01R
JOPLIN         CLEAR     78  70  76 S12       29.98R

$$
MOZ032>034-039>042-045>050-055>058-069>072-221200-
...CENTRAL MISSOURI...

CITY           SKY/WX    TMP DP  RH WIND       PRES   REMARKS
COLUMBIA       CLEAR     75  70  84 S7        29.96R
JEFFERSON CITY CLEAR     75  69  81 CALM      29.95R
ROLLA          CLEAR     72  69  90 S10       29.98S
SEDALIA        CLEAR     78  70  76 SW10      29.95S
OSAGE BEACH    CLEAR     73  68  83 S6        29.97S

$$
MOZ051-052-059>065-221200-
...EAST CENTRAL MISSOURI...

CITY           SKY/WX    TMP DP  RH WIND       PRES   REMARKS
ST LOUIS INTL  PTCLDY    80  69  69 W6        29.97
SPIRIT OF STL  PTCLDY    77  69  76 SW5       29.95R
ST CHARLES     CLEAR     72  69  90 CALM      29.95R

$$
MOZ072>076-082>087-097>100-106>115-221200-
...SOUTH CENTRAL AND SOUTHEAST MISSOURI...

CITY           SKY/WX    TMP DP  RH WIND       PRES   REMARKS
CAPE GIRARDEAU CLEAR     72  71  97 CALM      30.01R
FARMINGTON     CLEAR     75  70  83 SW7       30.03R
POPLAR BLUFF   CLEAR     73  69  87 S5        30.01R
WEST PLAINS    CLEAR     72  68  87 CALM      30.05R

$$


USA.gov is the U.S. government's official web portal to all federal, state and local government web resources and services.